Location: Unspecified
(41.1637°N, 24.2901°E)
Time: 21:56:04
(UTC+01:00)

ISS - Pass Details

Date: 30 November 2024
Orbit: 411 x 421 km, 51.6° (Epoch: 02 December)

Event Time Altitude Azimuth Distance (km) Brightness Sun altitude
Rises 17:46:14 0° 305° (NW) 2,374 0.7 -20.4°
Reaches altitude 10° 17:48:20 10° 305° (NW) 1,507 -0.4 -20.8°
Enters shadow 17:51:18 66° 301° (WNW) 463 -3.5 -21.4°
